Location: Cambroso
(45.2833°N, 12.0850°E)
Time: 16:35:53
(UTC+00:00)

Cosmos 1606 Rocket - Pass Details

Date: 21 January 2021
Orbit: 604 x 631 km, 82.5° (Epoch: 26 February)

Event Time Altitude Azimuth Distance (km) Brightness Sun altitude
Rises 17:07:35 0° 347° (NNW) 2,891 7.0 -11.3°
Reaches altitude 10° 17:09:49 10° 344° (NNW) 1,986 6.2 -11.6°
Maximum altitude 17:14:08 59° 265° (W) 722 4.2 -12.4°
Drops below altitude 10° 17:18:28 10° 187° (S) 1,986 6.4 -13.1°
Sets 17:20:42 0° 183° (S) 2,892 7.2 -13.5°
